Current weather by "City, St" or "zip code"  
 

Current Conditions: Lexington, Jim Kelly Field Airport, NE

Overcast


31.0 F

Last Updated on Oct 24 2020, 11:55 am CDT
Humidity: 74%
Wind Speed: SE 13.8 mph
Barometer 30.11 in
Dewpoint: 23.4 F
Visibility: 10.00 mi
Precip: --
Heat Index: NA
Wind Chill: 21 F
Current conditions at:

Lexington, Jim Kelly Field Airport, NE (KLXN)

Lat: 40.79111 Lon: 99.77722

Local Radar Image active severe weather and emergency alerts image image weather storm and storm spotter reports image weather observation monitoring service image
Local
Radar
Active
Alerts
Storm Reports Obs
Monitoring

Sign-up For Email & Text Message Weather Alert Notification Services



Advertise Here

Observation History for Lexington, Jim Kelly Field Airport, NE


Time Wind
(mph)
Vis
(mi)
Weather Precip (in) Temperature (F) Relative
Humidity
Wind
Chill
(F)
Heat
Index
(F)
Pressure
Air Dwpt altimeter
(in)
sea level
(mb)
Rmks
11:55 am CDT SE 13.8 10.00 Overcast -- 31.0 23.4 74% 21 NA 30.11 M
10:55 am CDT SE 13.8 10.00 Overcast -- 30.0 23.0 75% 19 NA 30.14 M
9:55 am CDT SE 11.5 10.00 Overcast -- 29.0 22.8 77% 19 NA 30.16 M
8:55 am CDT SE 12.7 G 16.1 10.00 Overcast -- 29.0 23.0 78% 19 NA 30.15 M
7:55 am CDT SE 10.4 10.00 Overcast -- 29.0 23.5 80% 20 NA 30.16 M
6:55 am CDT SE 10.4 10.00 Overcast -- 29.0 23.0 78% 20 NA 30.18 M
5:55 am CDT SE 13.8 G 18.4 10.00 Overcast -- 29.0 22.6 78% 18 NA 30.18 M
5:35 am CDT S 15.0 10.00 Overcast -- 29.0 22.6 78% 18 NA 30.19 M
4:55 am CDT S 12.7 10.00 Overcast -- 28.0 22.1 77% 17 NA 30.20 M
3:55 am CDT SE 8.1 G 16.1 10.00 Overcast -- 28.0 21.9 78% 20 NA 30.24 M
2:55 am CDT SE 10.4 10.00 Overcast -- 28.0 21.7 78% 19 NA 30.25 M
1:55 am CDT S 12.7 10.00 Overcast -- 28.0 21.2 77% 17 NA 30.28 M
12:55 am CDT SE 6.9 10.00 Overcast -- 28.0 21.0 77% 21 NA 30.32 M
11:55 pm CDT SE 5.8 10.00 Overcast -- 26.0 20.3 78% 19 NA 30.34 M
11:35 pm CDT SE 5.8 10.00 Partly Cloudy -- 26.0 20.1 79% 19 NA 30.35 M
10:55 pm CDT E 6.9 10.00 Fair -- 26.0 20.3 78% 18 NA 30.34 M
10:35 pm CDT E 5.8 10.00 Partly Cloudy -- 27.0 20.5 77% 20 NA 30.35 M
9:55 pm CDT E 4.6 10.00 Overcast -- 29.0 21.2 73% 24 NA 30.37 M
8:55 pm CDT NE 8.1 10.00 Overcast -- 29.0 21.2 72% 21 NA 30.39 M
7:55 pm CDT NE 6.9 10.00 Overcast -- 30.0 21.4 70% 23 NA 30.39 M
6:55 pm CDT NE 4.6 10.00 Overcast -- 31.0 21.0 67% 26 NA 30.40 M
6:35 pm CDT NE 6.9 10.00 Overcast -- 31.0 20.8 66% 24 NA 30.40 M
5:55 pm CDT N 6.9 10.00 Overcast -- 31.0 20.5 65% 24 NA 30.40 M
4:55 pm CDT N 9.2 10.00 Overcast -- 32.0 21.6 66% 24 NA 30.40 M

Regional Weather Observation


North Platte, North Platte Regional Airport, NE (KLBF)

Overcast
31.0 F

Broken Bow, Broken Bow Municipal Airport, NE (KBBW)

Overcast
29.0 F

Brewster Field Airport, NE (KHDE)

Overcast
32.0 F

Kearney, Kearney Municipal Airport, NE (KEAR)

Overcast
31.0 F

McCook, McCook Municipal Airport, NE (KMCK)

Overcast
29.0 F

Thedford, Thomas County Airport, NE (KTIF)

Overcast
29.0 F